Weather in Lafayette

United States     30°11′57″N   92°02′30″W
temp.,
°C
wind,
m/s
gust,
m/s
humid.,
%
clouds,
%
prec.,
mm/h
press.,
hPa
HPBL,
m
18 may, tue
tue1801:00+22se61394100 0.0 1014639
04:00+20se51295100 0.0 1014350
07:00+21ese5119630 0.0 1013295
10:00+26se578044 0.0 1015667
13:00+28sse676876 1.6 10141307
16:00+28se677350 3.4 10131132
19:00+25ese6118626 4.7 1012532
22:00+22ese7159319 0.0 1014534
19 may, wed
wed1901:00+21ese6159537 0.0 1014620
04:00+21ese6149637 0.0 1013558
07:00+21ese5139613 0.0 1015530
10:00+25se7118076 0.1 10161056
13:00+28se8116938 1.9 10151504
16:00+27se811745 3.0 10141308
19:00+24ese815861 4.7 1015852
22:00+22ese8169012 0.0 1016760
20 may, thu
thu2001:00+21ese6159118 0.2 1016664
04:00+21ese5139489 6.1 1015703
07:00+21ese6159577 7.8 1016696
10:00+25ese8128483 0.2 10171046
13:00+26ese91281100 5.1 10171094
16:00+24ese7148788 1.6 1017892
19:00+23ese8148924 3.9 1017907
22:00+22ese8169194 0.0 1019825
21 may, fri
fri2101:00+21e51493100 0.0 1018575
04:00+20e5139422 0.0 1019511
07:00+20e5149365 0.0 1021512
10:00+25ese8117842 0.0 10221034
13:00+27ese8117386 1.6 10221308
16:00+26ese7127893 2.5 10211272
19:00+24ese6117957 3.3 1022466
22:00+20e5128637 0.0 1023409
22 may, sat
sat2201:00+19e3109450 0.0 1023269
04:00+18e410955 0.0 1022229
07:00+18e412935 0.0 1024291
10:00+25ese6107697 0.0 1024889
13:00+28ese575930 0.0 10232032
16:00+30ese565696 0.0 10211995
19:00+24ese4117640 0.2 1021306
22:00+21se37825 0.0 1023113